[[{"header":{"parameterUnit":"m.s-1","parameterCategory":1,"la1":30.2992,"la2":30.254,"lo1":-89.0895,"lo2":-89.0443,"dy":0.0025,"dx":0.0025,"nx":19,"ny":19,"refTime":"2026-03-18T03:00:00:Z","depth":0,"parameterNumber":2,"parameterNumberName":"U-component_of_WINDS"},"data":[0,0,0,1.9584,1.9585,1.9654,1.9654,1.9739,1.9739,0,0,0,0,0,0,0,0,0,0,0,1.956,1.956,1.9583,1.9585,1.9654,1.9654,1.9738,1.9739,0,0,0,0,0,0,0,0,0,0,0,1.956,1.956,1.9561,1.9585,1.9653,1.9654,1.9738,1.9688,0,0,0,0,0,0,0,0,0,0,1.9622,1.9597,1.956,1.9561,1.9586,1.9653,1.9654,1.9686,1.9691,1.9706,0,1.9717,0,1.9729,1.9745,1.9745,0,0,0,1.9588,1.9592,1.9613,1.9561,1.9586,1.9653,1.9623,1.9689,1.9695,1.9713,1.9718,1.9721,1.9731,1.9745,1.9746,1.9818,1.9818,0,0,1.9584,1.9571,1.9609,1.9617,1.9605,1.9621,1.9625,1.9693,1.9698,1.9718,1.9723,1.9732,1.9746,1.9746,1.9818,1.9818,0,0,0,1.9571,1.9568,1.9588,1.9614,1.9626,1.9623,1.9628,1.9695,1.9702,1.9724,1.9733,1.9746,1.9747,1.9817,1.9818,1.9815,0,0,0,1.9569,1.9561,1.9586,1.9579,1.9625,1.9661,1.9629,1.9697,1.9705,1.9733,1.9746,1.9748,1.9817,1.9818,1.9814,1.9816,0,0,0,1.9557,1.9559,1.9568,1.9578,1.9607,1.966,1.9672,1.9699,1.9711,1.9745,1.9748,1.9817,1.9818,1.9814,1.9815,1.983,0,0,0,1.954,1.9565,1.9568,1.9599,1.9606,1.9657,1.9671,1.971,1.974,1.9747,1.9817,1.9818,1.9814,1.9815,1.983,1.9841,1.9844,0,0,1.9564,1.9567,1.9587,1.9592,1.9639,1.9648,1.9695,1.9735,1.9751,1.9795,1.9797,1.9814,1.9815,1.983,1.9867,1.987,0,0,0,1.9591,1.9604,1.962,1.9646,1.9676,1.9703,1.9736,1.9751,1.9789,1.977,1.9825,1.9826,1.9835,1.9841,1.9843,1.9852,1.982,1.982,1.982,1.9606,1.9624,1.9658,1.9685,1.971,1.9744,1.9767,1.9793,1.9805,1.9817,1.983,1.985,1.9857,1.9858,1.9868,1.9838,1.9838,1.9838,1.9838,1.9644,1.9666,1.968,1.9718,1.9738,1.977,1.9804,1.9811,1.9845,1.9842,1.9852,1.9847,1.9861,1.987,1.9838,1.9838,1.9838,1.9838,1.9838,1.9656,1.967,1.9687,1.9727,1.9756,1.9783,1.9814,1.9831,1.9847,1.9856,1.9872,1.9872,1.9874,1.9863,1.9863,1.9863,1.9863,1.9863,1.9863,1.9662,1.9681,1.9705,1.9739,1.9758,1.9785,1.982,1.984,1.9866,1.9876,1.9877,1.9887,1.9858,1.9851,1.9864,1.9864,1.9864,1.9864,1.9864,1.9692,1.9688,1.9724,1.9744,1.9785,1.9813,1.9834,1.9873,1.9892,1.9907,1.9916,1.9892,1.9897,1.9895,1.9889,1.9912,1.9912,1.9912,1.9912,1.9702,1.9706,1.9747,1.9777,1.9808,1.9831,1.9872,1.99,1.9928,1.9941,1.994,1.9934,1.9931,1.9938,1.9935,1.993,1.9962,1.9962,1.9962,1.9722,1.973,1.9761,1.9788,1.9822,1.9851,1.989,1.9924,1.9956,1.9965,1.9952,1.9949,1.9939,1.9934,1.9943,1.9939,1.9929,0,0]},{"header":{"parameterUnit":"m.s-1","parameterCategory":1,"la1":30.2992,"la2":30.254,"lo1":-89.0895,"lo2":-89.0443,"dy":0.0025,"dx":0.0025,"nx":19,"ny":19,"refTime":"2026-03-18T03:00:00:Z","depth":0,"parameterNumber":3,"parameterNumberName":"V-component_of_WINDS"},"data":[0,0,0,2.8463,2.8463,2.8459,2.8459,2.8446,2.8446,0,0,0,0,0,0,0,0,0,0,0,2.8463,2.8463,2.8463,2.8463,2.8459,2.8459,2.8446,2.8446,0,0,0,0,0,0,0,0,0,0,0,2.8463,2.8463,2.8463,2.8463,2.8459,2.8459,2.8446,2.8451,0,0,0,0,0,0,0,0,0,0,2.8457,2.8456,2.8463,2.8463,2.8463,2.8459,2.8459,2.8452,2.8451,2.8446,0,2.8444,0,2.8445,2.8445,2.8445,0,0,0,2.8464,2.8457,2.8457,2.8463,2.8463,2.8459,2.8461,2.8452,2.8451,2.8445,2.8444,2.8443,2.8445,2.8445,2.8445,2.8418,2.8418,0,0,2.8464,2.8461,2.8457,2.8456,2.846,2.8461,2.8461,2.8451,2.8448,2.8444,2.8443,2.8444,2.8445,2.8445,2.8419,2.8418,0,0,0,2.8464,2.8462,2.8462,2.8457,2.8457,2.8461,2.8461,2.8449,2.8449,2.8443,2.8444,2.8445,2.8445,2.8419,2.8418,2.8409,0,0,0,2.8464,2.8462,2.8462,2.846,2.8457,2.8453,2.8458,2.845,2.8449,2.8444,2.8445,2.8444,2.8419,2.8419,2.8409,2.8404,0,0,0,2.8464,2.8462,2.8461,2.846,2.8459,2.8454,2.8453,2.845,2.845,2.8445,2.8444,2.8419,2.8419,2.841,2.8405,2.8395,0,0,0,2.8462,2.8453,2.8461,2.845,2.8459,2.8448,2.8454,2.8446,2.8441,2.8445,2.8419,2.8418,2.841,2.8406,2.8396,2.8386,2.8383,0,0,2.8449,2.8451,2.8445,2.8452,2.844,2.8449,2.8434,2.8432,2.8432,2.8422,2.8422,2.8409,2.8405,2.8396,2.8362,2.8359,0,0,0,2.844,2.8435,2.8432,2.8428,2.8426,2.8423,2.8422,2.8421,2.8412,2.8428,2.8403,2.8401,2.8395,2.8391,2.8388,2.8382,2.8417,2.8417,2.8417,2.8418,2.8419,2.8408,2.8409,2.8404,2.8402,2.8397,2.8394,2.8398,2.8392,2.8389,2.8369,2.8363,2.8361,2.8355,2.8385,2.8384,2.8384,2.8384,2.8397,2.839,2.8393,2.8384,2.8384,2.8375,2.8372,2.8374,2.8364,2.8372,2.8367,2.8375,2.8358,2.8352,2.8384,2.8384,2.8384,2.8384,2.8384,2.8382,2.8379,2.8377,2.8369,2.8361,2.8361,2.8351,2.8351,2.8352,2.8347,2.8342,2.8342,2.8341,2.8345,2.8345,2.8345,2.8344,2.8344,2.8344,2.8368,2.8366,2.8358,2.8353,2.8349,2.8342,2.8338,2.8333,2.8327,2.8328,2.8328,2.833,2.8357,2.8363,2.8343,2.8343,2.8344,2.8344,2.8344,2.8346,2.835,2.8339,2.8334,2.8326,2.8316,2.8317,2.8305,2.83,2.8294,2.8297,2.8317,2.8319,2.8321,2.8326,2.8298,2.8298,2.8298,2.8298,2.8333,2.8334,2.8321,2.8312,2.8304,2.8303,2.8285,2.8279,2.8274,2.827,2.8274,2.8281,2.8283,2.8284,2.8287,2.8291,2.8255,2.8255,2.8255,2.8319,2.8319,2.8306,2.8302,2.8294,2.8287,2.8269,2.8257,2.8252,2.8253,2.8267,2.8269,2.8279,2.8283,2.8286,2.8291,2.8299,0,0]}]]